When you browse on this site, cookies collect data to enhance your experience and personalize the content and advertising you see.
Visit our Privacy Policy to learn more. By continuing to use the site, you agree to this use of cookies and data.
  • In Sweden
  • List of Countries
  • For 7 days
  • Water Temperature
  • Weather Map
  • Weather Widgets
  • user-avatar
    Login

    Hourly Weather Jeddah

    Today, 20 September, Friday

    Time Temperature Precipitation Wind Pressure Humidity
    00:00 +35°C° 0 mm 4 mps 752 mmHg 46%
    01:00 +35°C° 0 mm 4 mps 752 mmHg 45%
    02:00 +34°C° 0 mm 4 mps 752 mmHg 45%
    03:00 +34°C° 0 mm 4 mps 751 mmHg 42%
    04:00 +35°C° 0 mm 5 mps 751 mmHg 34%
    05:00 +36°C° 0 mm 5 mps 752 mmHg 26%
    06:00 +36°C° 0 mm 5 mps 752 mmHg 19%
    07:00 +40°C° 0 mm 6 mps 752 mmHg 15%
    08:00 +45°C° 0 mm 6 mps 752 mmHg 12%
    09:00 +48°C° 0 mm 6 mps 753 mmHg 8%
    10:00 +48°C° 0 mm 6 mps 752 mmHg 11%
    11:00 +48°C° 0 mm 5 mps 752 mmHg 13%
    12:00 +48°C° 0 mm 5 mps 752 mmHg 15%
    13:00 +48°C° 0 mm 5 mps 751 mmHg 17%
    14:00 +47°C° 0 mm 5 mps 750 mmHg 18%
    15:00 +46°C° 0 mm 6 mps 749 mmHg 20%
    16:00 +43°C° 0 mm 5 mps 750 mmHg 24%
    17:00 +42°C° 0 mm 4 mps 750 mmHg 28%
    18:00 +40°C° 0 mm 4 mps 750 mmHg 33%
    19:00 +38°C° 0 mm 3 mps 750 mmHg 34%
    20:00 +37°C° 0 mm 3 mps 751 mmHg 36%
    21:00 +36°C° 0 mm 3 mps 751 mmHg 38%
    22:00 +36°C° 0 mm 3 mps 751 mmHg 38%
    23:00 +36°C° 0 mm 3 mps 751 mmHg 37%

    Tomorrow, 21 September, Saturday

    Time Temperature Precipitation Wind Pressure Humidity
    00:00 +35°C° 0 mm 3 mps 751 mmHg 37%
    01:00 +35°C° 0 mm 3 mps 751 mmHg 38%
    02:00 +34°C° 0 mm 3 mps 751 mmHg 38%
    03:00 +34°C° 0 mm 3 mps 750 mmHg 39%
    04:00 +34°C° 0 mm 3 mps 750 mmHg 40%
    05:00 +32°C° 0 mm 2 mps 751 mmHg 40%
    06:00 +32°C° 0 mm 2 mps 751 mmHg 40%
    07:00 +35°C° 0 mm 2 mps 751 mmHg 39%
    08:00 +36°C° 0 mm 2 mps 752 mmHg 38%
    09:00 +38°C° 0 mm 2 mps 752 mmHg 37%
    10:00 +40°C° 0 mm 3 mps 752 mmHg 35%
    11:00 +42°C° 0 mm 4 mps 752 mmHg 32%
    12:00 +43°C° 0 mm 5 mps 752 mmHg 30%
    13:00 +43°C° 0 mm 5 mps 751 mmHg 32%
    14:00 +42°C° 0 mm 5 mps 751 mmHg 35%
    15:00 +41°C° 0 mm 5 mps 750 mmHg 37%
    16:00 +40°C° 0 mm 4 mps 750 mmHg 42%
    17:00 +38°C° 0 mm 3 mps 750 mmHg 46%
    18:00 +35°C° 0 mm 1 mps 750 mmHg 50%
    19:00 +35°C° 0 mm 1 mps 751 mmHg 52%
    20:00 +34°C° 0 mm 1 mps 751 mmHg 54%
    21:00 +31°C° 0 mm 0 mps 752 mmHg 55%
    22:00 +31°C° 0 mm 0 mps 752 mmHg 55%
    23:00 +33°C° 0 mm 1 mps 751 mmHg 54%

    Day after tomorrow, 22 September, Sunday

    Time Temperature Precipitation Wind Pressure Humidity
    00:00 +32°C° 0 mm 1 mps 751 mmHg 53%
    01:00 +32°C° 0 mm 1 mps 751 mmHg 53%
    02:00 +32°C° 0 mm 1 mps 751 mmHg 54%
    03:00 +31°C° 0 mm 2 mps 751 mmHg 55%
    04:00 +31°C° 0 mm 2 mps 751 mmHg 54%
    05:00 +31°C° 0 mm 3 mps 751 mmHg 54%
    06:00 +31°C° 0 mm 3 mps 752 mmHg 53%
    07:00 +34°C° 0 mm 3 mps 752 mmHg 49%
    08:00 +35°C° 0 mm 4 mps 752 mmHg 45%
    09:00 +37°C° 0 mm 4 mps 752 mmHg 42%
    10:00 +38°C° 0 mm 4 mps 752 mmHg 42%
    11:00 +40°C° 0 mm 5 mps 752 mmHg 42%
    12:00 +41°C° 0 mm 5 mps 752 mmHg 42%
    13:00 +40°C° 0 mm 5 mps 751 mmHg 44%
    14:00 +39°C° 0 mm 6 mps 751 mmHg 47%
    15:00 +39°C° 0 mm 6 mps 750 mmHg 49%
    16:00 +37°C° 0 mm 5 mps 750 mmHg 52%
    17:00 +36°C° 0 mm 4 mps 750 mmHg 55%
    18:00 +35°C° 0 mm 3 mps 750 mmHg 58%
    19:00 +34°C° 0 mm 3 mps 751 mmHg 61%
    20:00 +33°C° 0 mm 3 mps 751 mmHg 64%
    21:00 +33°C° 0 mm 3 mps 752 mmHg 67%
    22:00 +31°C° 0 mm 3 mps 752 mmHg 68%
    23:00 +31°C° 0 mm 3 mps 752 mmHg 70%

    23 September, Monday

    Time Temperature Precipitation Wind Pressure Humidity
    00:00 +31°C° 0 mm 2 mps 752 mmHg 71%
    01:00 +30°C° 0 mm 2 mps 752 mmHg 71%
    02:00 +30°C° 0 mm 2 mps 751 mmHg 70%
    03:00 +30°C° 0 mm 2 mps 751 mmHg 70%
    04:00 +30°C° 0 mm 3 mps 751 mmHg 74%
    05:00 +29°C° 0 mm 3 mps 751 mmHg 78%
    06:00 +29°C° 0 mm 3 mps 752 mmHg 82%
    07:00 +30°C° 0 mm 3 mps 752 mmHg 74%
    08:00 +32°C° 0 mm 2 mps 752 mmHg 67%
    09:00 +33°C° 0 mm 1 mps 753 mmHg 59%
    10:00 +35°C° 0 mm 2 mps 752 mmHg 56%
    11:00 +36°C° 0 mm 3 mps 752 mmHg 53%
    12:00 +38°C° 0 mm 4 mps 752 mmHg 49%
    13:00 +37°C° 0 mm 5 mps 751 mmHg 51%
    14:00 +37°C° 0 mm 5 mps 751 mmHg 52%
    15:00 +38°C° 0 mm 6 mps 750 mmHg 53%
    16:00 +36°C° 0 mm 5 mps 750 mmHg 56%
    17:00 +35°C° 0 mm 4 mps 750 mmHg 58%
    18:00 +35°C° 0 mm 3 mps 750 mmHg 61%
    19:00 +34°C° 0 mm 3 mps 751 mmHg 63%
    20:00 +32°C° 0 mm 2 mps 751 mmHg 64%
    21:00 +32°C° 0 mm 1 mps 752 mmHg 66%
    22:00 +32°C° 0 mm 2 mps 752 mmHg 66%
    23:00 +31°C° 0 mm 2 mps 752 mmHg 66%

    24 September, Tuesday

    Time Temperature Precipitation Wind Pressure Humidity
    00:00 +31°C° 0 mm 2 mps 752 mmHg 66%
    01:00 +31°C° 0 mm 2 mps 751 mmHg 68%
    02:00 +30°C° 0 mm 2 mps 751 mmHg 70%
    03:00 +30°C° 0 mm 1 mps 751 mmHg 72%
    04:00 +29°C° 0 mm 1 mps 751 mmHg 74%
    05:00 +29°C° 0 mm 2 mps 751 mmHg 76%
    06:00 +29°C° 0 mm 2 mps 752 mmHg 77%
    07:00 +30°C° 0 mm 2 mps 752 mmHg 70%
    08:00 +32°C° 0 mm 1 mps 752 mmHg 63%
    09:00 +34°C° 0 mm 1 mps 753 mmHg 55%
    10:00 +36°C° 0 mm 2 mps 753 mmHg 51%
    11:00 +37°C° 0 mm 3 mps 752 mmHg 48%
    12:00 +40°C° 0 mm 4 mps 752 mmHg 44%
    13:00 +40°C° 0 mm 4 mps 752 mmHg 43%
    14:00 +40°C° 0 mm 5 mps 751 mmHg 42%
    15:00 +40°C° 0 mm 5 mps 751 mmHg 41%
    16:00 +38°C° 0 mm 4 mps 751 mmHg 45%
    17:00 +37°C° 0 mm 4 mps 750 mmHg 49%
    18:00 +36°C° 0 mm 3 mps 750 mmHg 54%
    19:00 +35°C° 0 mm 2 mps 751 mmHg 55%
    20:00 +34°C° 0 mm 2 mps 751 mmHg 56%
    21:00 +34°C° 0 mm 2 mps 752 mmHg 58%
    22:00 +34°C° 0 mm 2 mps 752 mmHg 55%
    23:00 +34°C° 0 mm 2 mps 752 mmHg 53%

    25 September, Wednesday

    Time Temperature Precipitation Wind Pressure Humidity
    00:00 +34°C° 0 mm 2 mps 751 mmHg 51%
    01:00 +32°C° 0 mm 2 mps 751 mmHg 53%
    02:00 +32°C° 0 mm 2 mps 751 mmHg 54%
    03:00 +31°C° 0 mm 2 mps 751 mmHg 56%
    04:00 +31°C° 0 mm 3 mps 751 mmHg 60%
    05:00 +30°C° 0 mm 3 mps 751 mmHg 65%
    06:00 +30°C° 0 mm 4 mps 752 mmHg 69%
    07:00 +33°C° 0 mm 3 mps 752 mmHg 61%
    08:00 +34°C° 0 mm 2 mps 752 mmHg 54%
    09:00 +36°C° 0 mm 2 mps 753 mmHg 46%
    10:00 +37°C° 0 mm 3 mps 753 mmHg 44%
    11:00 +40°C° 0 mm 4 mps 752 mmHg 42%
    12:00 +41°C° 0 mm 4 mps 752 mmHg 40%
    13:00 +41°C° 0 mm 5 mps 752 mmHg 40%
    14:00 +40°C° 0 mm 6 mps 751 mmHg 41%
    15:00 +40°C° 0 mm 7 mps 751 mmHg 42%
    16:00 +39°C° 0 mm 6 mps 751 mmHg 44%
    17:00 +38°C° 0 mm 6 mps 751 mmHg 47%
    18:00 +36°C° 0 mm 5 mps 751 mmHg 49%
    19:00 +35°C° 0 mm 5 mps 751 mmHg 51%
    20:00 +35°C° 0 mm 5 mps 752 mmHg 53%
    21:00 +34°C° 0 mm 5 mps 752 mmHg 55%
    22:00 +33°C° 0 mm 4 mps 752 mmHg 55%
    23:00 +33°C° 0 mm 3 mps 752 mmHg 54%
    Show more